date_time, Year, Month, Day, DOY, Decimal_year, W_Year, WYD, Decimal_WYear, HMP_rh   (%),  Max,  Min, HMP_temp   (C),  Max,  Min, snow_depth   (cm),  Max,  Min, WS   (m/s),  Max,  Min, radiation   (W/m^2),  Max,  Min
10/1/2009,2009,10,1,274,0.749315068,2010,1,0.001369863,41.61028986,66.01,19.59,9.802927536,17.61,3.85,0,0,0,1.474884058,5.246,0,202.8977971,948,0
10/2/2009,2009,10,2,275,0.752054795,2010,2,0.004109589,33.60985714,50.96,17.04,10.75961429,18.38,5.757,0,0,0,1.422728571,3.966,0,194.8038571,937,0
10/3/2009,2009,10,3,276,0.754794521,2010,3,0.006849315,42.62071429,78.9,25.19,8.7791,15,2.653,0,0,0,1.208128571,7.81,0,175.2848286,908,0
10/4/2009,2009,10,4,277,0.757534247,2010,4,0.009589041,86.95742857,100,62.11,0.851514286,4.618,-1.651,0,0,0,0.630542857,6.206,0,113.764,604.8,0
10/5/2009,2009,10,5,278,0.760273973,2010,5,0.012328767,76.00585714,100,42.51,2.135414286,9.3,-2.78,0,0,0,0.630542857,5.246,0,177.8463714,918,0
10/6/2009,2009,10,6,279,0.763013699,2010,6,0.015068493,59.15414286,87.1,33.22,5.147257143,11.95,0.098,0,0,0,0.698142857,5.246,0,170.1262286,900,0
10/7/2009,2009,10,7,280,0.765753425,2010,7,0.017808219,56.48428571,74,31.48,6.239028571,12.95,1.778,0,0,0,0.6269,6.206,0,161.5765571,894,0
10/8/2009,2009,10,8,281,0.768493151,2010,8,0.020547945,58.42971429,78.3,31.88,7.531428571,15.03,1.832,0,0,0,0.677171429,6.206,0,157.7866571,898,0
10/9/2009,2009,10,9,282,0.771232877,2010,9,0.023287671,54.85028571,73.6,31.87,9.511628571,16.85,4.532,0,0,0,0.574785714,6.206,0,156.3971286,890,0
10/10/2009,2009,10,10,283,0.773972603,2010,10,0.026027397,46.61914286,60.93,25.25,10.20728571,17.78,5.146,0,0,0,0.5803,5.246,0,152.0688143,888,0
10/11/2009,2009,10,11,284,0.776712329,2010,11,0.028767123,58.912,78.5,37.23,8.783442857,15.76,4.513,0,0,0,0.621271429,5.566,0,145.3600143,863,0
10/12/2009,2009,10,12,285,0.779452055,2010,12,0.031506849,88.64428571,100,63.58,5.341514286,10.34,2.353,0,0,0,0.528985714,3.007,0,81.93421429,544.4,0
10/13/2009,2009,10,13,286,0.782191781,2010,13,0.034246575,96.35714286,100,77,5.465314286,7.95,1.936,0,0,0,1.696157143,7.17,0,8.509942857,38.08,0
10/14/2009,2009,10,14,287,0.784931507,2010,14,0.036986301,98.10571429,100,89.4,9.468171429,12.86,6.483,0,0,0,0.788585714,3.966,0,96.08885714,550,0
10/15/2009,2009,10,15,288,0.787671233,2010,15,0.039726027,92.59928571,100,66.25,11.00902857,16.6,6.233,0,0,0,0.4112,4.926,0,98.57217143,834,0
10/16/2009,2009,10,16,289,0.790410959,2010,16,0.042465753,85.86514286,100,53.73,13.66785714,21.29,9,0,0,0,0.255857143,3.647,0,128.6414714,844,0
10/17/2009,2009,10,17,290,0.793150685,2010,17,0.045205479,65.97142857,84.8,32.07,14.42785714,23.2,9.81,0,0,0,0.8169,6.526,0,127.8013571,833,0
10/18/2009,2009,10,18,291,0.795890411,2010,18,0.047945205,72.893,97,38.22,13.463,19.53,9.85,0,0,0,0.438614286,5.566,0,115.2561714,794,0
10/19/2009,2009,10,19,292,0.798630137,2010,19,0.050684932,97.95,100,89.9,6.263314286,10.94,-0.061,0,0,0,0.386471429,3.327,0,36.44641429,238.2,0
10/20/2009,2009,10,20,293,0.801369863,2010,20,0.053424658,94.47428571,100,71.4,3.969542857,10,-0.59,0,0,0,0.529042857,3.966,0,79.59745714,846,0
10/21/2009,2009,10,21,294,0.804109589,2010,21,0.056164384,78.77242857,98.9,39.31,8.086071429,14.9,2.721,0,0,0,0.4368,4.606,0,111.5257,843,0
10/22/2009,2009,10,22,295,0.806849315,2010,22,0.05890411,84.236,99.5,57.5,8.690185714,14.43,4.446,0,0,0,0.338142857,3.647,0,88.35995714,773,0
10/23/2009,2009,10,23,296,0.809589041,2010,23,0.061643836,69.91628571,89.6,33.42,11.18867143,18.24,6.492,0,0,0,0.269557143,3.966,0,106.0895143,759,0
10/24/2009,2009,10,24,297,0.812328767,2010,24,0.064383562,87.76614286,99.3,60.56,10.47085714,16.29,7.16,0,0,0,0.3025,5.566,0,73.6207,651,0
10/25/2009,2009,10,25,298,0.815068493,2010,25,0.067123288,82.29,95.1,56.92,9.316914286,16.84,5.468,0,0,0,0.174514286,3.007,0,98.56501429,660,0
10/26/2009,2009,10,26,299,0.817808219,2010,26,0.069863014,68.36871429,89.2,28.01,10.01602857,17.43,5.869,0,0,0,0.193742857,2.687,0,98.19227143,764,0
10/27/2009,2009,10,27,300,0.820547945,2010,27,0.07260274,93.09818859,100,35.05609426,1.918,6.369,-3.507,0,0,0,0.604014286,3.647,0,51.48284286,319.2,0
10/28/2009,2009,10,28,301,0.823287671,2010,28,0.075342466,62.37971429,84.1,29.65,-0.871657143,4.152,-3.838,0,0,0,0.913871429,4.926,0,91.66152857,628,0
10/29/2009,2009,10,29,302,0.826027397,2010,29,0.078082192,66.66457143,89.1,46.38,0.686214286,6.389,-3.349,0,0,0,0.311585714,2.687,0,88.08722857,760,0
10/30/2009,2009,10,30,303,0.828767123,2010,30,0.080821918,70.25557143,95.7,34.42,7.271028571,14.41,0.691,0,0,0,0.282342857,3.327,0,86.09048571,780,0
10/31/2009,2009,10,31,304,0.831506849,2010,31,0.083561644,68.36771429,85.8,36.77,9.196214286,16.63,4.337,0,0,0,0.134314286,2.687,0,84.47625714,765,0
11/1/2009,2009,11,1,305,0.834246575,2010,32,0.08630137,54.08542857,74.2,25.86,11.1866,20.2,6.534,0,0,0,0.058485714,3.327,0,80.73854286,762,0
11/2/2009,2009,11,2,306,0.836986301,2010,33,0.089041096,45.49642857,69.96,25.66,12.27057143,20.66,8.26,0,0,0,0.074014286,2.047,0,78.59908571,743,0
11/3/2009,2009,11,3,307,0.839726027,2010,34,0.091780822,38.62014286,57.96,16.57,12.65514286,21.81,8.71,0,0,0,0.180028571,3.327,0,74.80051429,719,0
11/4/2009,2009,11,4,308,0.842465753,2010,35,0.094520548,43.36785714,63.76,19.98,11.17757143,18.62,7.72,0,0,0,0.157171429,3.007,0,71.72692857,702,0
11/5/2009,2009,11,5,309,0.845205479,2010,36,0.097260274,58.46057143,78.6,29.61,7.894271429,14.17,2.639,0,0,0,0.203757143,3.647,0,76.52055714,526.7,0
11/6/2009,2009,11,6,310,0.847945205,2010,37,0.1,79.36814286,100,58.9,5.696242857,12.01,2.365,0,0,0,0.163542857,3.966,0,68.94581429,680.5,0
11/7/2009,2009,11,7,311,0.850684932,2010,38,0.102739726,91.93142857,100,75.7,3.417942857,7.89,0.248,0,0,0,0.171757143,3.007,0,49.28845714,301.6,0
11/8/2009,2009,11,8,312,0.853424658,2010,39,0.105479452,62.93214286,91,35.18,4.347757143,12.7,-0.937,0,0,0,0.162671429,3.966,0,81.70104286,489.4,0
11/9/2009,2009,11,9,313,0.856164384,2010,40,0.108219178,48.78728571,73.3,24.68,5.733771429,12.95,1.688,0,0,0,0.073071429,1.727,0,73.6075,468.4,0
11/10/2009,2009,11,10,314,0.85890411,2010,41,0.110958904,47.683,78,30.28,7.3573,13.95,3.202,0,0,0,0,0,0,72.39055714,324,0
11/11/2009,2009,11,11,315,0.861643836,2010,42,0.11369863,55.34485714,71.1,31.16,7.915614286,13.42,3.511,0,0,0,0.015528571,1.087,0,67.01925714,297.5,0
11/12/2009,2009,11,12,316,0.864383562,2010,43,0.116438356,85.12271429,100,54.77,2.723328571,5.182,0.722,0,0,0,0.116028571,2.367,0,24.52998571,110,0
11/13/2009,2009,11,13,317,0.867123288,2010,44,0.119178082,100,100,96.2,0.535542857,2.92,-1.634,0,0,0,0.111457143,2.047,0,52.19037143,398.2,0
11/14/2009,2009,11,14,318,0.869863014,2010,45,0.121917808,98.87820231,100,90.6,0.225542857,4.148,-2.417,0,0,0,0.211085714,2.687,0,43.27077143,448.5,0
11/15/2009,2009,11,15,319,0.87260274,2010,46,0.124657534,75.90392623,100,49.7,2.681185714,9.92,-1.703,0,0,0,0.837957143,3.647,0,60.5684,622.1,0
11/16/2009,2009,11,16,320,0.875342466,2010,47,0.12739726,60.50228571,75.9,31.22,5.936142857,13.99,1.808,0,0,0,1.127614286,4.286,0,57.47957143,626,0
11/17/2009,2009,11,17,321,0.878082192,2010,48,0.130136986,58.23414286,72.6,26.14,6.863614286,15.54,2.683,0,0,0,0.076771429,3.007,0,54.88518571,638,0
11/18/2009,2009,11,18,322,0.880821918,2010,49,0.132876712,80.39985714,99.7,60.39,2.544814286,6.765,-1.163,0,0,0,0.4862,5.886,0,47.54621429,598.1,0
11/19/2009,2009,11,19,323,0.883561644,2010,50,0.135616438,49.32514286,73.7,13.97,4.457828571,13.21,-0.903,0,0,0,0.477028571,3.647,0,55.06135714,591.4,0
11/20/2009,2009,11,20,324,0.88630137,2010,51,0.138356164,48.27714286,68.55,24,4.758271429,10.41,2.043,0,0,0,0.312514286,3.966,0,60.88814286,359,0
11/21/2009,2009,11,21,325,0.889041096,2010,52,0.14109589,89.83788978,100,66.17109493,1.248485714,4.225,-1.357,0,0,0,0.276871429,4.286,0,31.0044,263.8,0
11/22/2009,2009,11,22,326,0.891780822,2010,53,0.143835616,80.71385714,100,48.82,3.099157143,9.5,-1.422,0,0,0,1.067514286,7.49,0,50.74187143,467.3,0
11/23/2009,2009,11,23,327,0.894520548,2010,54,0.146575342,59.04728571,84.8,20.66,4.314542857,13.26,-0.71,0,0,0,0.351785714,2.687,0,51.29465714,477.4,0
11/24/2009,2009,11,24,328,0.897260274,2010,55,0.149315068,55.23842857,78.3,34.36,5.668842857,13.75,1.688,0,0,0,0.313457143,4.606,0,51.23361429,499.8,0
11/25/2009,2009,11,25,329,0.9,2010,56,0.152054795,50.75814286,75.3,28.55,6.604157143,15.11,2.887,0,0,0,0.367314286,2.047,0,47.60088571,500.7,0
11/26/2009,2009,11,26,330,0.902739726,2010,57,0.154794521,53.064,73.8,26.21,6.786042857,15.48,3.056,0,0,0,0.718228571,3.647,0,45.77645714,475.5,0
11/27/2009,2009,11,27,331,0.905479452,2010,58,0.157534247,72.25385714,100,39.65,3.501985714,8.9,-1.799,0,0,0,0.390171429,3.647,0,60.25315714,260.3,0
11/28/2009,2009,11,28,332,0.908219178,2010,59,0.160273973,80.55342857,100,44.81,0.723742857,5.162,-3.302,0,0,0,1.688857143,6.526,0,49.27958571,454.1,0
11/29/2009,2009,11,29,333,0.910958904,2010,60,0.163013699,60.578,82.7,26.74,3.599785714,11.92,-0.479,0,0,0,0.721857143,3.327,0,50.2579,458.4,0
11/30/2009,2009,11,30,334,0.91369863,2010,61,0.165753425,57.20357143,75.7,24.2,4.174271429,11.93,0.35,0,0,0,0.8553,2.687,0,42.58498571,516.6,0
12/1/2009,2009,12,1,335,0.916438356,2010,62,0.168493151,68.64871429,86.4,42.07,4.1388,10.88,1.115,0,0,0,0.487914286,3.007,0,42.26694286,516.6,0
12/2/2009,2009,12,2,336,0.919178082,2010,63,0.171232877,75.82385714,95.4,48.42,2.950014286,9.16,0.125,0,0,0,0.2933,2.687,0,39.50431429,496.6,0
12/3/2009,2009,12,3,337,0.921917808,2010,64,0.173972603,66.08942857,89.5,28.81,2.871828571,10.03,-0.797,0,0,0,0.356357143,3.007,0,38.72602857,480.8,0
12/4/2009,2009,12,4,338,0.924657534,2010,65,0.176712329,56.64657143,78.2,31.23,2.872328571,9.55,-0.143,0,0,0,0.654342857,4.606,0,41.1702,449.6,0
12/5/2009,2009,12,5,339,0.92739726,2010,66,0.179452055,77.11357143,97.9,48.9,0.666514286,5.079,-2.43,0.004942857,0.142,0,0.468814286,4.286,0,41.96944286,381.9,0
12/6/2009,2009,12,6,340,0.930136986,2010,67,0.182191781,90.28142857,100,80.5,-3.118742857,-0.849,-5.396,0.091742857,1.299,0,0,0,0,37.90234286,187.6,0
12/7/2009,2009,12,7,341,0.932876712,2010,68,0.184931507,99.11571429,100,94.9,-5.045128571,-2.308,-12.6,19.90179252,35.76,0,0,0,0,2.167057143,15.56,0
12/8/2009,2009,12,8,342,0.935616438,2010,69,0.187671233,97.51285714,100,94.2,-8.669042857,-2.273,-13.75,29.04642857,34.32,24.21,0,0,0,8.093628571,43.03,0
12/9/2009,2009,12,9,343,0.938356164,2010,70,0.190410959,98.47060074,100,89.3,-4.335171429,2.175,-9.73,24.28742857,28.15,17.8,0,0,0,9.821214286,79.1,0
12/10/2009,2009,12,10,344,0.94109589,2010,71,0.193150685,97.85142857,100,78.1,-0.329428571,4.019,-3.319,21.01185714,24.31,13.52,0.145271429,2.047,0,8.890971429,49.07,0
12/11/2009,2009,12,11,345,0.943835616,2010,72,0.195890411,100,100,100,0.541928571,1.191,0.006,25.32228571,28.79,15.9,0.126985714,1.727,0,6.247671429,30.44,0
12/12/2009,2009,12,12,346,0.946575342,2010,73,0.198630137,100,100,100,1.426857143,3.849,-0.159,24.5025,26.97,19.05,1.252914286,6.526,0,6.472785714,39.01,0
12/13/2009,2009,12,13,347,0.949315068,2010,74,0.201369863,100,100,98.70422805,-0.806542857,0.989,-2.49,37.89528571,43.04,22.22,0.189157143,4.926,0,4.992714286,30.87,0
12/14/2009,2009,12,14,348,0.952054795,2010,75,0.204109589,100,100,98.1,-1.715642857,2.355,-4.623,39.88271429,41.62,36.94,0.095928571,2.047,0,7.200714286,50.32,0
12/15/2009,2009,12,15,349,0.954794521,2010,76,0.206849315,100,100,99.45944651,-0.902071429,1.679,-3.47,38.62028571,39.83,37.44,0.075828571,1.727,0,8.903242857,37.53,0
12/16/2009,2009,12,16,350,0.957534247,2010,77,0.209589041,98.55714286,100,88.2,1.087928571,5.805,-1.49,36.88614286,38.61,33.43,0.376457143,2.687,0,16.49947143,157.1,0
12/17/2009,2009,12,17,351,0.960273973,2010,78,0.212328767,86.96857143,100,70.1,2.821414286,9.08,0.355,35.613,36.94,32.41,0.349971429,2.367,0,33.9031,215.7,0
12/18/2009,2009,12,18,352,0.963013699,2010,79,0.215068493,77.92771429,89,55.76,3.461557143,10.17,1.14,35.32628571,36.6,32.26,0.1325,3.327,0,41.45094286,222.5,0
12/19/2009,2009,12,19,353,0.965753425,2010,80,0.217808219,71.09528571,81.5,45.81,3.799971429,10.61,1.116,34.75785714,36.27,31.59,0.094114286,2.047,0,49.17502857,280.7,0
12/20/2009,2009,12,20,354,0.968493151,2010,81,0.220547945,74.413,86.5,39.18,2.940628571,9,0.708,33.62628571,35.29,27.91,0.0201,1.407,0,56.23432857,261.6,0
12/21/2009,2009,12,21,355,0.971232877,2010,82,0.223287671,87.89187083,100,69.09,2.181142857,7.13,-0.168,32.65442857,35.84,25.98,0.211957143,2.047,0,44.31191429,235.3,0
12/22/2009,2009,12,22,356,0.973972603,2010,83,0.226027397,99.00626207,100,95,-4.643571429,-0.185,-9.61,43.05485374,49.93,31.64,0.137057143,3.966,0,8.988657143,63.09,0
12/23/2009,2009,12,23,357,0.976712329,2010,84,0.228767123,99.11825633,100,89.05421435,-2.310857143,2.419,-8.97,46.34585714,48.98,43.76,0.033814286,2.367,0,29.54902857,299.3,0
12/24/2009,2009,12,24,358,0.979452055,2010,85,0.231506849,89.05571429,100,70.3,-0.175171429,5.367,-3.053,43.13085714,46.21,37.27,0.049342857,2.047,0,32.9123,313.8,0
12/25/2009,2009,12,25,359,0.982191781,2010,86,0.234246575,72.08442857,90.8,32.57,1.199128571,8.04,-1.472,42.25328571,44.25,35.12,0.136128571,3.007,0,30.4423,310.9,0
12/26/2009,2009,12,26,360,0.984931507,2010,87,0.236986301,69.43728571,84.4,41.4,0.7937,4.87,-1.405,40.77142857,43.21,34.76,0.062114286,2.047,0,47.10905714,214.6,0
12/27/2009,2009,12,27,361,0.987671233,2010,88,0.239726027,91.82428571,100,77.2,0.375842857,3.875,-2.039,41.60857143,44.29,33.51,0.324428571,3.647,0,51.01702857,327.4,0
12/28/2009,2009,12,28,362,0.990410959,2010,89,0.242465753,77.81385714,95.9,41.4,0.603842857,5.691,-2.566,42.80814286,44.17,40.62,0.137071429,3.007,0,50.74507143,341.5,0
12/29/2009,2009,12,29,363,0.993150685,2010,90,0.245205479,97.68714286,100,87.9,0.075985714,2.112,-0.936,44.13271429,45.97,32.92,0.287857143,3.327,0,37.0676,209.2,0
12/30/2009,2009,12,30,364,0.995890411,2010,91,0.247945205,99.69328034,100,96.3,-0.2427,2.077,-2.78,48.14092857,50.02,42.79,0.094114286,2.687,0,15.83267143,125.7,0
12/31/2009,2009,12,31,365,0.998630137,2010,92,0.250684932,98.16917813,100,84.2,0.419757143,6.051,-2.539,47.05542857,48.13,43.46,0.053914286,2.047,0,34.55544286,348.5,0
1/1/2010,2010,1,1,1,0.001369863,2010,93,0.253424658,83.69485714,99.5,42.2,2.323757143,9.69,-1.101,45.70142857,46.97,43.12,0.336257143,3.007,0,50.97155714,274.9,0
1/2/2010,2010,1,2,2,0.004109589,2010,94,0.256164384,72.424,93.9,42.21,2.472257143,9.65,-1.074,44.45871429,45.8,41.93,0.740128571,4.286,0,52.24174286,244.2,0
1/3/2010,2010,1,3,3,0.006849315,2010,95,0.25890411,57.98314286,73.2,13.04,3.296142857,12.02,0.275,43.41642857,44.8,40.09,0.616785714,2.367,0,44.55841429,234.4,0
1/4/2010,2010,1,4,4,0.009589041,2010,96,0.261643836,51.29642857,69.24,14.44,3.7202,11.3,0.673,42.33314286,43.63,39.85,0.294242857,3.007,0,43.20847143,416.3,0
1/5/2010,2010,1,5,5,0.012328767,2010,97,0.264383562,62.53642857,80.7,26.82,3.5207,10.74,0.469,42.46842857,43.63,39.28,0.063057143,3.007,0,41.92008571,249.8,0
1/6/2010,2010,1,6,6,0.015068493,2010,98,0.267123288,69.09942857,79.8,45.27,4.357385714,11.09,1.462,42.11157143,43.29,40.11,0,0,0,50.24148571,290,0
1/7/2010,2010,1,7,7,0.017808219,2010,99,0.269863014,74.53542857,87.8,43.26,4.668085714,11.26,1.95,41.62657143,42.67,39.29,0.104185714,4.286,0,41.58378571,343.8,0
1/8/2010,2010,1,8,8,0.020547945,2010,100,0.27260274,73.923,87.8,46.8,5.482485714,11.59,2.747,40.96157143,42.12,38.36,0.024671429,1.727,0,47.90008571,455.4,0
1/9/2010,2010,1,9,9,0.023287671,2010,101,0.275342466,83.94928571,96.6,57.96,5.140342857,11.39,2.515,39.79785714,41.37,38.1,0,0,0,62.99294286,248.7,0
1/10/2010,2010,1,10,10,0.026027397,2010,102,0.278082192,77.119,91.7,41.79,5.357571429,12.32,2.427,38.163,39.11,34.93,0.047528571,3.327,0,39.34961429,324.1,0
1/11/2010,2010,1,11,11,0.028767123,2010,103,0.280821918,69.17514286,83.3,34.23,5.783157143,12.77,2.441,37.669,38.54,36.1,0.149842857,3.007,0,53.30522857,457.5,0
1/12/2010,2010,1,12,12,0.031506849,2010,104,0.283561644,84.11228571,100,63.13,4.029628571,7.25,2.872,36.441,37.77,34.76,0.943057143,5.246,0,28.30537143,280.4,0
1/13/2010,2010,1,13,13,0.034246575,2010,105,0.28630137,98.3789364,100,84.3,1.431757143,3.987,-1.713,33.91185714,35.77,30.93,0.664357143,4.606,0,50.95202857,329,0
1/14/2010,2010,1,14,14,0.036986301,2010,106,0.289041096,94.05285714,100,75.1,0.491214286,6.862,-3.786,32.02614286,34.2,27.73,0.3856,3.327,0,44.65605714,509.1,0
1/15/2010,2010,1,15,15,0.039726027,2010,107,0.291780822,66.20728571,89.8,22.81,4.377385714,11.92,0.647,31.25957143,32.68,28.57,0.440442857,4.286,0,59.49647143,367.9,0
1/16/2010,2010,1,16,16,0.042465753,2010,108,0.294520548,58.49114286,81,27.62,3.705971429,8.71,-0.603,31.51842857,33.09,29.16,0.586642857,4.606,0,45.35982857,482.4,0
1/17/2010,2010,1,17,17,0.045205479,2010,109,0.297260274,81.42014286,100,52.9,1.0873,4.54,-0.925,31.81785714,35.34,27.74,0.2211,2.687,0,33.0248,187.5,0
1/18/2010,2010,1,18,18,0.047945205,2010,110,0.3,100,100,98.3685754,0.2721,2.355,-1.049,39.41571429,48.98,32.76,1.402,11.01,0,4.185142857,35.57,0
1/19/2010,2010,1,19,19,0.050684932,2010,111,0.302739726,99.99187696,100,99.3,-1.541914286,-0.047,-2.478,52.71945238,67.71,41.7025,0.149842857,2.367,0,5.105442857,51.83,0
1/20/2010,2010,1,20,20,0.053424658,2010,112,0.305479452,99.95285714,100,98.5,-2.165042857,-1.118,-3.112,86.40992857,113.5,62.01,0.987828571,5.246,0,0.934257143,4.047,0
1/21/2010,2010,1,21,21,0.056164384,2010,113,0.308219178,100,100,99.3,-2.9241,-0.016,-6.474,118.8352381,143.3,106,0.0201,1.407,0,2.058428571,11.06,0
1/22/2010,2010,1,22,22,0.05890411,2010,114,0.310958904,100,100,99.87901232,-2.863557143,-0.493,-4.418,160.0928571,174.4,141.6,0,0,0,5.411557143,30.34,0
1/23/2010,2010,1,23,23,0.061643836,2010,115,0.31369863,97.91805087,100,84.3,-4.103942857,2.216,-9.55,163.5,172.3,155.5,0.137071429,2.687,0,16.65832857,111.1,0
1/24/2010,2010,1,24,24,0.064383562,2010,116,0.316438356,97.94563507,100,83.6,-1.846071429,3.959,-7.14,152.1857143,157.2,148.3,0.240328571,3.007,0,13.16782857,70.4,0
1/25/2010,2010,1,25,25,0.067123288,2010,117,0.319178082,100,100,100,0.5887,2.442,-0.326,145.1371429,148.7,142,0.477028571,3.327,0,9.124285714,51.21,0
1/26/2010,2010,1,26,26,0.069863014,2010,118,0.321917808,98.49943166,100,81.7,1.182850927,5.857564908,-0.548,137.455,142.3,132.7,0.095042857,4.606,0,57.01005714,284.5,0
1/27/2010,2010,1,27,27,0.07260274,2010,119,0.324657534,99.14770575,100,92.5,0.269471429,3.265,-1.558,131.9485714,134.6,129.2,0.035628571,1.727,0,41.83695714,310.1,0
1/28/2010,2010,1,28,28,0.075342466,2010,120,0.32739726,92.24724935,100,60.52,0.419942857,7.24,-2.896,128.3571429,130.5,125.7,0.258614286,3.647,0,59.25135714,577,0
1/29/2010,2010,1,29,29,0.078082192,2010,121,0.330136986,81.768,97.4,49.62,1.640085714,6.857,-1.196,125.1057143,127.6,120.5,0.316142857,3.966,0,90.72131429,433,0
1/30/2010,2010,1,30,30,0.080821918,2010,122,0.332876712,94.22314286,100,69.42,0.094428571,4.291,-3.003,122.42,124.7,117.6,0.360057143,3.007,0,72.24422857,623.9,0
1/31/2010,2010,1,31,31,0.083561644,2010,123,0.335616438,83.80685714,98.9,60.55,-0.652642857,6.06,-4.503,122.4057143,124.1,120.1,0.317085714,4.926,0,66.11547143,598.9,0
2/1/2010,2010,2,1,32,0.08630137,2010,124,0.338356164,74.82271429,88.8,42.82,1.066628571,6.631,-2.291,120.9985714,122.5,119.5,0.084971429,1.727,0,83.08377143,360.4,0
2/2/2010,2010,2,2,33,0.089041096,2010,125,0.34109589,80.68385714,98.7,47.95,1.127157143,5.467,-1.488,119.3257143,120.9,117,0.212014286,4.926,0,69.35775714,301.1,0
2/3/2010,2010,2,3,34,0.091780822,2010,126,0.343835616,88.71271429,100,57.74,0.797528571,6.057,-2.587,118.2742857,119.5,115,0.420342857,5.246,0,52.92571429,659.5,0
2/4/2010,2010,2,4,35,0.094520548,2010,127,0.346575342,77.30542857,100,38.52,2.030228571,7.06,-0.915,117.2528571,118.6,116,0.410257143,5.246,0,70.3447,322.9,0
2/5/2010,2010,2,5,36,0.097260274,2010,128,0.349315068,99.87428571,100,95.8,1.653285714,3.948,0.23,115.5042857,118.2,108.9,0.308828571,2.687,0,34.65104286,226,0
2/6/2010,2010,2,6,37,0.1,2010,129,0.352054795,100,100,95.93509368,0.208614286,2.479,-1.615,114.9439048,125.9,105.8,0.148014286,3.966,0,20.96825714,130.6,0
2/7/2010,2010,2,7,38,0.102739726,2010,130,0.354794521,98.67809149,100,89.7,-0.7253,2.147,-2.684,127.4757143,132.9,119.5,0.295185714,3.647,0,14.89151429,67.81,0
2/8/2010,2010,2,8,39,0.105479452,2010,131,0.357534247,97.481551,100,83.2,-1.4184,2.874,-5.608,122.37,124.6,120.4,0.051157143,1.407,0,17.03574286,90.7,0
2/9/2010,2010,2,9,40,0.108219178,2010,132,0.360273973,98.18571429,100,89.4,-1.432985714,0.833,-3.625,120.4551299,123.3,114.9,0,0,0,11.23765714,59.32,0
2/10/2010,2010,2,10,41,0.110958904,2010,133,0.363013699,99.09482607,100,90.3,-2.532042857,1.355,-5.826,118.53,121.9,114.4,0.033814286,2.367,0,11.68942857,81.3,0
2/11/2010,2010,2,11,42,0.11369863,2010,134,0.365753425,98.12706093,100,81.7,0.516157143,6.835,-3.002,118.4471429,120.5,112,0,0,0,31.78534286,144.5,0
2/12/2010,2010,2,12,43,0.116438356,2010,135,0.368493151,96.81561438,100,81.7,1.586771429,7.19,-0.837,116.43,118.2,113.9,0.010957143,0.767,0,64.37071429,734,0
2/13/2010,2010,2,13,44,0.119178082,2010,136,0.371232877,77.47228571,94.3,45.02,3.234828571,11.23,-0.799,114.5942857,116.5,110.7,0.222042857,3.007,0,84.04488571,765,0
2/14/2010,2010,2,14,45,0.121917808,2010,137,0.373972603,67.93071429,84.6,25.35,4.075871429,12.26,0.311,112.9757143,114.5,109.6,1.228085714,4.606,0,81.99435714,808,0
2/15/2010,2010,2,15,46,0.124657534,2010,138,0.376712329,73.34128571,91.3,35.45,3.857328571,12.2,0.251,111.1785714,113.2,106.9,0.629557143,2.687,0,86.35985714,807,0
2/16/2010,2010,2,16,47,0.12739726,2010,139,0.379452055,67.67071429,88,25.73,4.478457143,12.31,1.021,109.6014286,111.5,104.2,0.662528571,6.206,0,92.05588571,751,0
2/17/2010,2010,2,17,48,0.130136986,2010,140,0.382191781,71.09657143,93.8,34.04,4.548785714,12.3,0.886,108.2442857,109.9,105.3,0.528157143,3.966,0,92.31128571,808,0
2/18/2010,2010,2,18,49,0.132876712,2010,141,0.384931507,77.02114286,97.6,38.84,3.843414286,10.96,0.268,106.7442857,108.5,103.2,0.716342857,3.327,0,93.51984286,772,0
2/19/2010,2010,2,19,50,0.135616438,2010,142,0.387671233,92.33842857,100,67.16,1.7507,5.67,-0.668,106.1271429,107.2,101,0.227542857,3.966,0,52.35151429,264.5,0
2/20/2010,2010,2,20,51,0.138356164,2010,143,0.390410959,100,100,93.7,0.757885714,2.717,-0.245,104.992381,110.2,97.9,0.362785714,4.606,0,44.84362857,365.9,0
2/21/2010,2010,2,21,52,0.14109589,2010,144,0.393150685,100,100,97.6,-0.573785714,0.364,-1.568,112.647521,121.6,106.5,0.074014286,2.687,0,9.6682,55.36,0
2/22/2010,2010,2,22,53,0.143835616,2010,145,0.395890411,97.29728254,100,82.4,-0.5532,2.988,-4.788,118.6657143,121.5,115.4,0.125171429,2.367,0,13.23507143,78.6,0
2/23/2010,2010,2,23,54,0.146575342,2010,146,0.398630137,97.2551919,100,69.55,-0.241057143,4.022,-3.612,115.9742857,119.2,113.2,0.078585714,3.007,0,48.96271429,368.8,0
2/24/2010,2010,2,24,55,0.149315068,2010,147,0.401369863,100,100,92.4,1.215114286,5.7,-0.317,117.3457143,120.6,113.3,0.121542857,2.687,0,35.71787143,462.6,0
2/25/2010,2010,2,25,56,0.152054795,2010,148,0.404109589,97.61236127,100,81.4,1.754571429,7.83,-1.755,113.03,115.5,104.8,0.197357143,4.286,0,116.4761,999,0
2/26/2010,2010,2,26,57,0.154794521,2010,149,0.406849315,90.9282373,100,46.33,2.3626,8.14,0.074,113.7157143,116,109.5,0.640571429,4.286,0,57.19814286,376.4,0
2/27/2010,2010,2,27,58,0.157534247,2010,150,0.409589041,99.73123303,100,82.3,0.325814286,4.536,-0.902,131.4040476,139.8,114.6,0.031057143,1.407,0,7.623214286,56.28,0
2/28/2010,2010,2,28,59,0.160273973,2010,151,0.412328767,99.23107676,100,89.7,0.243557143,4.361,-3.116,134.8571429,139,128.9,0.161742857,2.687,0,11.58678571,92.1,0
3/1/2010,2010,3,1,60,0.163013699,2010,152,0.415068493,91.04662174,100,59.04,2.603614286,8.39,-0.424,128.2814286,131.7,124.6,0.155357143,2.687,0,93.03385714,517.5,0
3/2/2010,2010,3,2,61,0.165753425,2010,153,0.417808219,99.82048779,100,95.4,0.9352,3.014,0.008,129.28,132.7,119.4,0.069442857,2.367,0,25.97414286,176.6,0